Date,TemperatureHighF,TemperatureAvgF,TemperatureLowF,DewpointHighF,DewpointAvgF,DewpointLowF,HumidityHigh,HumidityAvg,HumidityLow,PressureMaxIn,PressureMinIn,WindSpeedMaxMPH,WindSpeedAvgMPH,GustSpeedMaxMPH,PrecipitationSumIn
2014-1-1,41.5,33.7,29.3,27.0,19.2,6.8,90,57,32,29.96,29.77,11,6,14,0.00
2014-1-2,43.0,34.0,12.0,42.7,28.2,11.8,99,82,45,29.76,29.33,36,12,49,0.06
2014-1-3,16.3,9.6,3.4,11.7,5.3,-5.3,99,84,37,29.92,29.38,38,14,45,0.00
2014-1-4,34.0,24.4,12.7,33.7,10.9,-22.7,99,61,10,29.93,29.84,23,9,23,0.00
2014-1-5,44.2,39.4,34.5,35.7,26.3,16.9,99,61,36,29.85,29.43,21,10,30,0.02
2014-1-6,41.0,13.1,-9.9,22.8,4.3,-20.5,99,70,39,29.59,29.37,40,21,41,0.07
2014-1-7,11.7,-2.0,-12.6,-3.0,-17.4,-34.6,60,49,10,29.91,29.55,45,16,55,0.00
2014-1-8,46.9,26.9,11.8,0.6,-15.6,-34.1,44,16,10,30.06,29.90,11,5,15,0.00
2014-1-9,43.9,34.5,28.8,28.3,-12.9,-20.7,81,14,10,30.11,30.03,7,3,10,0.00
2014-1-10,47.1,41.9,32.0,41.5,29.1,20.2,99,64,41,30.05,29.78,12,4,13,0.28
2014-1-11,49.8,44.7,34.2,42.3,14.7,-8.7,93,39,10,29.78,29.38,28,10,32,0.91
2014-1-12,47.5,35.9,28.6,31.1,26.9,14.6,99,74,29,29.84,29.44,38,14,45,0.05
2014-1-13,48.6,40.3,35.1,35.9,28.9,16.0,99,67,32,29.81,29.61,17,8,24,0.05
2014-1-14,40.5,37.1,34.3,37.7,32.2,20.6,99,83,51,29.67,29.50,26,10,32,0.12
2014-1-15,37.0,28.9,19.9,30.3,25.0,19.3,99,87,50,29.64,29.55,20,10,20,0.00
2014-1-16,41.4,23.7,13.8,19.3,14.0,7.8,98,70,35,29.60,29.52,20,8,21,0.00
2014-1-17,41.7,30.1,17.2,27.2,20.1,15.4,99,69,37,29.59,29.48,27,9,27,0.00
2014-1-18,29.5,17.0,7.2,18.5,11.2,4.8,99,80,37,29.60,29.47,30,13,36,0.00
2014-1-19,34.7,29.1,25.5,26.9,21.8,14.3,99,75,50,29.63,29.51,27,9,32,0.00
2014-1-20,50.2,39.7,31.3,24.0,16.1,-1.5,50,39,20,29.59,29.53,30,13,37,0.00
2014-1-21,41.4,29.8,9.5,32.5,22.8,9.3,99,79,50,29.54,29.30,32,13,36,0.00
2014-1-22,19.8,8.6,0.7,8.6,0.8,-9.6,99,73,34,29.57,29.41,34,15,34,0.00
2014-1-23,18.3,11.0,8.4,7.8,3.2,-2.0,90,71,56,29.83,29.55,27,15,33,0.00
2014-1-24,23.9,9.5,-7.8,-1.8,-7.6,-13.8,88,48,19,29.96,29.66,20,9,20,0.00
2014-1-25,25.2,21.5,13.3,21.9,1.0,-27.5,99,53,10,29.65,29.28,44,15,44,0.09
2014-1-26,47.5,30.8,16.5,24.8,4.6,-24.6,78,39,10,29.53,29.36,35,13,49,0.00
2014-1-27,43.7,32.3,12.6,34.8,25.1,-3.3,99,76,48,29.67,29.50,27,14,31,0.00
2014-1-28,16.0,11.0,7.0,12.1,5.0,-9.3,99,78,41,29.75,29.66,21,6,26,0.00
2014-1-29,17.8,7.7,-0.8,7.6,-4.5,-19.1,97,63,25,29.81,29.61,32,12,36,0.00
2014-1-30,35.6,19.9,8.8,7.0,-2.9,-24.7,58,38,13,29.85,29.75,11,5,13,0.00
2014-1-31,54.0,38.3,27.1,18.0,-4.5,-17.2,51,18,10,29.85,29.74,10,5,14,0.00